QPF
0.19 0.16 0.09 0.02 0.01 0.00 0.00 0.00 0.00 0.00 0.00 0.00 0.00 0.00 0.00 0.00 0.00 0.00 0.00 0.00 0.00 0.00 0.00 0.00 0.00 0.00 0.00 0.00 0.00 0.00 0.00 0.00
0.12 0.15 0.11 0.00 0.00 0.00 0.01 0.00 0.00 0.00 0.00 0.00 0.00 0.00 0.00 0.00 0.00 0.00 0.00 0.00 0.00 0.00 0.00 0.00 0.00 0.00 0.00 0.00 0.00 0.00 0.00 0.00
0.17 0.11 0.09 0.03 0.03 0.02 0.02 0.02 0.00 0.00 0.00 0.00 0.00 0.00 0.00 0.00 0.00 0.00 0.00 0.00 0.00 0.00 0.00 0.00 0.00 0.00 0.00 0.00 0.00 0.00 0.00 0.00
0.14 0.12 0.08 0.03 0.01 0.01 0.04 0.02 0.00 0.00 0.00 0.00 0.00 0.00 0.00 0.00 0.00 0.00 0.00 0.00 0.00 0.00 0.00 0.00 0.00 0.00 0.00 0.00 0.00 0.00 0.00 0.00
0.02 0.03 0.02 0.02 0.00 0.00 0.00 0.00 0.01 0.01 0.00 0.00 0.00 0.00 0.00 0.00 0.00 0.00 0.00 0.00 0.00 0.00 0.00 0.00 0.00 0.00 0.00 0.00 0.00 0.00 0.00 0.00
0.03 0.01 0.02 0.00 0.00 0.00 0.01 0.01 0.07 0.04 0.00 0.00 0.00 0.00 0.00 0.00 0.00 0.00 0.00 0.00 0.00 0.00 0.00 0.00 0.00 0.00 0.00 0.00 0.00 0.00 0.00 0.00
0.01 0.00 0.00 0.00 0.00 0.00 0.01 0.02 0.03 0.02 0.00 0.00 0.00 0.00 0.00 0.00 0.00 0.00 0.00 0.00 0.00 0.00 0.00 0.00 0.00 0.00 0.00 0.00 0.00 0.00 0.00 0.00
0.00 0.00 0.00 0.00 0.00 0.00 0.00 0.02 0.00 0.01 0.00 0.00 0.00 0.00 0.00 0.00 0.00 0.00 0.00 0.00 0.00 0.00 0.00 0.00 0.00 0.00 0.00 0.00 0.00 0.00 0.00 0.00
0.00 0.00 0.00 0.00 0.00 0.00 0.00 0.01 0.00 0.00 0.00 0.00 0.00 0.00 0.00 0.00 0.00 0.00 0.00 0.00 0.00 0.00 0.00 0.00 0.00 0.00 0.00 0.00 0.00 0.00 0.00 0.00
0.00 0.00 0.00 0.00 0.00 0.00 0.00 0.00 0.00 0.00 0.00 0.00 0.00 0.00 0.00 0.00 0.00 0.00 0.00 0.00 0.00 0.00 0.00 0.00 0.00 0.00 0.00 0.00 0.00 0.00 0.00 0.00
0.00 0.00 0.00 0.00 0.00 0.00 0.00 0.00 0.00 0.00 0.00 0.02 0.03 0.01 0.00 0.00 0.00 0.00 0.00 0.00 0.00 0.00 0.00 0.00 0.00 0.00 0.00 0.00 0.00 0.00 0.00 0.00
0.00 0.00 0.00 0.00 0.01 0.01 0.00 0.00 0.00 0.00 0.01 0.01 0.03 0.00 0.00 0.00 0.00 0.00 0.00 0.00 0.00 0.00 0.00 0.00 0.00 0.00 0.00 0.00 0.00 0.00 0.00 0.00
0.00 0.00 0.00 0.01 0.02 0.00 0.00 0.00 0.00 0.00 0.05 0.03 0.19 0.07 0.02 0.00 0.00 0.00 0.00 0.00 0.00 0.00 0.00 0.00 0.00 0.00 0.00 0.00 0.00 0.00 0.00 0.00
0.00 0.00 0.00 0.00 0.00 0.00 0.00 0.00 0.00 0.00 0.01 0.04 0.13 0.07 0.00 0.00 0.00 0.00 0.00 0.00 0.00 0.00 0.00 0.00 0.00 0.00 0.00 0.00 0.00 0.00 0.00 0.00
0.00 0.00 0.00 0.00 0.00 0.00 0.00 0.00 0.00 0.00 0.00 0.02 0.03 0.04 0.00 0.00 0.00 0.00 0.00 0.00 0.00 0.00 0.00 0.00 0.00 0.00 0.00 0.00 0.00 0.00 0.00 0.00
0.00 0.00 0.00 0.00 0.00 0.00 0.00 0.00 0.00 0.00 0.00 0.00 0.00 0.00 0.01 0.03 0.00 0.00 0.00 0.00 0.00 0.00 0.00 0.00 0.00 0.00 0.00 0.00 0.00 0.00 0.00 0.00
0.00 0.00 0.00 0.00 0.00 0.00 0.00 0.00 0.00 0.00 0.00 0.00 0.00 0.00 0.00 0.03 0.00 0.00 0.00 0.00 0.00 0.00 0.00 0.00 0.00 0.00 0.00 0.00 0.00 0.00 0.00 0.00
0.00 0.00 0.00 0.00 0.00 0.00 0.00 0.01 0.00 0.00 0.01 0.02 0.00 0.00 0.01 0.02 0.02 0.00 0.00 0.00 0.00 0.00 0.00 0.00 0.00 0.00 0.00 0.00 0.00 0.00 0.00 0.00
0.00 0.00 0.00 0.00 0.00 0.00 0.00 0.00 0.00 0.00 0.01 0.07 0.03 0.02 0.00 0.01 0.00 0.00 0.00 0.00 0.00 0.00 0.00 0.00 0.00 0.00 0.00 0.00 0.00 0.00 0.00 0.00
0.00 0.00 0.00 0.00 0.00 0.00 0.00 0.00 0.01 0.03 0.06 0.12 0.11 0.07 0.01 0.00 0.00 0.00 0.00 0.00 0.00 0.00 0.00 0.00 0.00 0.00 0.00 0.00 0.00 0.00 0.00 0.00
MSLP
1012.42 1012.86 1013.85 1014.09 1014.54 1015.29 1015.79 1016.29 1016.70 1017.43 1017.99 1018.44 1018.89 1019.15 1019.47 1020.01 1020.37 1020.72 1021.00 1021.40 1021.71 1022.08 1022.41 1022.48 1022.54 1022.36 1022.12 1021.94 1021.79 1021.85 1021.93 1022.63
1013.61 1013.95 1014.38 1014.89 1015.21 1015.81 1016.45 1017.13 1017.46 1017.56 1018.52 1019.20 1019.39 1019.74 1019.90 1020.33 1020.90 1021.30 1021.50 1021.77 1022.11 1022.30 1022.64 1022.78 1022.80 1022.79 1022.51 1022.48 1022.35 1022.19 1022.31 1022.88
1014.40 1014.60 1014.95 1015.13 1016.09 1016.24 1016.77 1017.14 1018.28 1018.35 1018.96 1019.64 1019.63 1020.11 1020.47 1020.70 1021.29 1021.67 1021.94 1022.24 1022.30 1022.55 1022.73 1022.87 1022.83 1022.78 1022.61 1022.81 1022.69 1022.43 1022.91 1023.59
1015.07 1015.51 1016.02 1016.02 1016.47 1016.44 1017.01 1017.92 1018.52 1018.91 1019.09 1019.54 1019.74 1020.48 1020.73 1021.15 1021.68 1021.96 1022.27 1022.49 1022.64 1022.65 1022.87 1022.95 1023.21 1022.95 1022.88 1022.96 1022.87 1022.81 1023.44 1024.05
1015.93 1016.15 1016.68 1017.13 1017.41 1017.21 1017.94 1018.30 1018.95 1019.23 1019.34 1019.25 1020.35 1020.97 1021.14 1021.49 1021.95 1022.35 1022.61 1022.81 1022.82 1022.89 1023.19 1023.47 1023.13 1023.02 1023.34 1023.25 1023.26 1023.06 1023.77 1024.26
1016.41 1016.71 1016.96 1017.38 1017.93 1018.50 1018.24 1018.57 1019.47 1019.64 1019.58 1020.15 1020.66 1021.13 1021.33 1021.47 1021.90 1022.19 1022.68 1022.64 1022.80 1022.90 1023.09 1023.19 1023.17 1023.36 1023.42 1023.57 1023.52 1023.45 1024.03 1024.32
1017.04 1017.16 1017.42 1017.86 1018.94 1019.33 1018.88 1019.81 1020.52 1020.17 1020.30 1020.64 1020.76 1020.96 1021.04 1021.15 1021.52 1021.89 1022.21 1022.41 1022.50 1022.67 1023.04 1023.30 1023.38 1023.40 1023.55 1023.59 1023.85 1023.76 1024.02 1024.76
1017.12 1017.60 1017.96 1018.55 1019.40 1019.54 1020.03 1020.65 1021.05 1020.57 1020.55 1020.39 1020.49 1020.68 1020.55 1020.76 1021.15 1021.47 1021.76 1021.98 1022.32 1022.49 1022.92 1023.07 1023.40 1023.41 1023.83 1023.89 1024.10 1024.16 1024.20 1024.91
1017.69 1018.21 1018.71 1019.42 1019.77 1020.25 1020.63 1021.09 1020.59 1020.62 1019.98 1019.92 1020.01 1020.07 1020.46 1020.81 1021.15 1021.45 1021.62 1021.80 1022.02 1022.31 1022.53 1022.90 1023.15 1023.42 1023.94 1024.18 1024.20 1024.41 1024.58 1024.59
1018.04 1018.47 1019.02 1019.39 1019.58 1019.85 1020.27 1020.00 1019.65 1019.58 1019.65 1019.75 1019.75 1020.03 1020.31 1020.90 1021.07 1021.22 1021.38 1021.59 1021.98 1022.54 1022.85 1023.24 1023.29 1023.53 1023.92 1024.02 1024.18 1024.43 1024.74 1024.98
1017.59 1018.13 1018.41 1018.48 1018.97 1019.13 1019.01 1018.83 1019.03 1019.17 1019.05 1019.12 1019.49 1019.68 1020.11 1020.68 1020.84 1020.98 1021.16 1021.63 1022.03 1022.35 1022.70 1022.82 1023.07 1023.51 1023.88 1024.06 1024.03 1024.46 1024.77 1024.64
1016.88 1017.35 1017.52 1017.94 1018.48 1018.46 1018.62 1018.51 1018.65 1018.67 1018.71 1018.83 1019.11 1019.43 1019.79 1020.30 1020.44 1020.68 1021.19 1021.48 1022.00 1022.11 1022.49 1022.67 1023.02 1023.33 1023.47 1023.88 1024.16 1024.48 1024.44 1024.64
1016.27 1016.65 1017.02 1017.61 1018.08 1018.48 1018.11 1017.96 1018.15 1018.39 1018.33 1018.15 1018.84 1019.32 1019.35 1019.95 1020.31 1020.72 1021.21 1021.54 1021.73 1022.11 1022.29 1022.65 1023.20 1023.46 1023.77 1023.92 1023.86 1024.19 1024.52 1024.50
1015.73 1016.01 1016.37 1016.83 1017.25 1017.41 1017.24 1017.28 1017.44 1017.54 1017.55 1017.87 1018.81 1019.75 1018.83 1019.44 1019.98 1020.31 1020.79 1021.40 1021.60 1021.83 1022.28 1022.81 1023.10 1023.42 1023.90 1024.06 1024.00 1024.56 1024.71 1024.42
1014.58 1014.99 1015.55 1015.96 1016.27 1016.35 1016.48 1016.48 1016.76 1016.89 1017.09 1017.46 1017.67 1018.36 1018.39 1018.81 1019.52 1019.96 1020.56 1020.92 1021.10 1021.58 1022.16 1022.56 1023.13 1023.51 1023.76 1024.31 1024.24 1024.37 1024.37 1024.08
1013.35 1013.78 1014.22 1014.64 1014.91 1015.11 1015.27 1015.64 1015.96 1015.99 1016.46 1016.99 1017.35 1017.82 1018.11 1018.42 1019.13 1019.68 1020.13 1020.55 1021.00 1021.50 1022.22 1022.64 1022.96 1023.54 1023.92 1024.05 1024.16 1024.44 1024.56 1024.95
1012.04 1012.51 1013.01 1013.41 1013.90 1014.24 1014.44 1014.77 1015.18 1015.45 1015.56 1016.00 1016.66 1017.33 1017.77 1018.51 1018.90 1019.34 1019.87 1020.40 1021.07 1021.60 1022.26 1022.80 1023.09 1023.66 1024.31 1024.54 1024.45 1024.52 1024.45 1025.03
1010.98 1011.38 1011.67 1012.18 1012.72 1013.29 1013.78 1014.32 1014.76 1015.16 1015.39 1015.76 1016.13 1016.70 1017.34 1017.80 1018.37 1019.00 1019.86 1020.55 1021.33 1022.40 1022.72 1022.90 1023.29 1023.87 1024.34 1024.66 1024.74 1024.83 1024.09 1024.51
1009.95 1010.55 1010.88 1011.22 1011.68 1012.25 1012.92 1013.67 1014.28 1014.92 1015.20 1015.25 1015.99 1016.59 1016.91 1017.51 1018.00 1018.68 1019.13 1020.25 1021.15 1021.79 1022.77 1022.87 1023.65 1024.19 1024.23 1024.30 1024.22 1024.19 1023.68 1023.98
1008.60 1009.27 1009.93 1010.29 1010.76 1011.29 1011.97 1012.30 1013.56 1014.54 1014.88 1014.97 1015.54 1016.26 1016.43 1017.07 1017.96 1019.02 1019.52 1019.69 1020.68 1021.27 1021.71 1022.61 1023.11 1023.45 1024.04 1024.23 1024.11 1023.69 1023.74 1023.83
Thickness
5656 5663 5658 5659 5659 5656 5653 5650 5648 5643 5640 5639 5637 5636 5634 5630 5628 5627 5627 5625 5624 5623 5622 5623 5625 5627 5630 5632 5634 5633 5633 5629
5653 5652 5649 5650 5649 5647 5644 5638 5638 5637 5631 5629 5630 5627 5626 5625 5621 5619 5620 5619 5618 5620 5619 5619 5621 5622 5626 5626 5629 5631 5629 5624
5643 5645 5643 5647 5638 5635 5636 5635 5626 5625 5623 5620 5621 5618 5617 5616 5614 5611 5610 5610 5614 5616 5618 5617 5619 5620 5622 5622 5623 5625 5622 5616
5635 5633 5631 5633 5631 5629 5629 5623 5616 5616 5618 5615 5613 5609 5608 5606 5604 5604 5603 5605 5610 5614 5614 5615 5612 5617 5619 5618 5619 5619 5614 5609
5626 5625 5622 5621 5621 5624 5618 5617 5607 5607 5609 5612 5603 5601 5601 5600 5599 5597 5597 5602 5606 5610 5610 5608 5611 5613 5612 5614 5613 5614 5608 5603
5618 5616 5616 5615 5612 5611 5614 5609 5601 5599 5601 5598 5596 5594 5594 5597 5597 5595 5594 5601 5604 5606 5607 5607 5609 5608 5609 5608 5608 5608 5602 5597
5609 5611 5609 5605 5597 5598 5603 5596 5589 5589 5591 5591 5591 5590 5594 5599 5598 5596 5599 5600 5603 5605 5605 5603 5604 5605 5604 5603 5600 5599 5595 5589
5605 5603 5600 5597 5591 5593 5589 5584 5578 5583 5585 5589 5590 5593 5598 5600 5600 5601 5601 5601 5601 5604 5602 5603 5601 5602 5598 5596 5593 5591 5589 5584
5596 5593 5592 5586 5585 5583 5580 5576 5580 5583 5588 5590 5593 5598 5599 5599 5600 5601 5601 5601 5602 5603 5603 5601 5600 5596 5592 5589 5588 5583 5581 5577
5589 5589 5586 5584 5583 5582 5579 5583 5587 5586 5590 5594 5599 5599 5602 5598 5600 5600 5601 5603 5601 5598 5596 5595 5594 5592 5589 5587 5584 5579 5574 5569
5594 5593 5591 5592 5590 5589 5591 5597 5596 5594 5599 5603 5601 5603 5602 5599 5599 5601 5602 5601 5599 5596 5595 5594 5590 5587 5584 5583 5580 5573 5567 5566
5605 5604 5606 5601 5596 5595 5596 5599 5599 5602 5604 5605 5607 5606 5603 5601 5601 5602 5599 5600 5596 5596 5592 5589 5588 5583 5583 5578 5572 5565 5564 5560
5614 5613 5611 5604 5599 5597 5602 5605 5606 5606 5608 5611 5608 5603 5606 5601 5600 5599 5597 5597 5594 5590 5588 5585 5578 5576 5571 5569 5567 5564 5559 5557
5618 5617 5615 5613 5611 5610 5612 5614 5613 5613 5615 5614 5606 5593 5608 5603 5601 5600 5597 5592 5590 5588 5583 5578 5575 5570 5563 5560 5557 5551 5547 5547
5629 5627 5623 5620 5619 5620 5620 5620 5618 5618 5618 5617 5616 5610 5611 5608 5603 5600 5595 5590 5590 5585 5578 5575 5567 5564 5560 5551 5547 5542 5539 5538
5638 5636 5633 5632 5631 5628 5628 5623 5620 5624 5621 5619 5616 5612 5610 5609 5602 5598 5594 5590 5585 5580 5571 5567 5563 5553 5550 5545 5540 5532 5526 5516
5648 5646 5643 5641 5637 5635 5631 5628 5627 5626 5626 5623 5618 5613 5610 5604 5600 5597 5591 5586 5579 5570 5563 5557 5554 5545 5536 5531 5528 5522 5517 5506
5654 5652 5652 5649 5645 5640 5635 5630 5627 5624 5623 5621 5618 5615 5611 5604 5600 5595 5588 5579 5571 5559 5553 5551 5546 5536 5528 5521 5516 5509 5511 5499
5659 5656 5653 5653 5650 5645 5639 5634 5628 5622 5621 5623 5616 5611 5610 5604 5600 5592 5585 5571 5564 5556 5546 5543 5534 5525 5521 5516 5511 5505 5503 5493
5666 5661 5655 5655 5652 5648 5645 5642 5630 5622 5618 5618 5613 5604 5608 5600 5592 5581 5573 5570 5560 5553 5547 5537 5530 5522 5513 5507 5502 5499 5492 5485